#timestamp,LO_Frequency,Hit,StdDev 
1559581215.9,286046999.6,N
1559581235.7,286046994.9,Y
1559581255.5,286046998.0,P
1559581275.4,286046997.9,N
1559581295.2,286046993.3,P
1559581315.0,286046995.2,N
1559581315.9,286046995.2,N
1559581335.8,286046995.8,N
1559581355.6,286046995.0,N
1559581375.5,286046997.3,N
1559581395.3,286046997.0,N
1559581415.1,286046999.0,N
1559581435.9,286046998.3,N
1559581455.7,286046998.1,N
1559581475.5,286046999.9,N
1559581495.4,286047000.9,N
1559581515.2,286047002.4,N
1559581535.1,286047002.7,N
1559581536.0,286047002.7,N
1559581555.8,286047002.2,N
1559581575.6,286047002.3,N
1559581595.5,286047001.6,N
1559581615.3,286047002.1,N
1559581635.1,286047002.3,N
1559581655.9,286047000.2,N
1559581675.7,286046999.9,N
1559581695.5,286047000.9,N
1559581715.4,286046996.5,N
1559581735.2,286046998.1,N
1559581755.1,286047000.8,N
1559581756.0,286047000.8,N
1559581775.8,286046998.2,N
1559581795.6,286047000.0,N
1559581815.5,286046999.9,N
1559581835.3,286046998.2,N
1559581855.1,286046998.6,N
1559581875.9,286046999.5,N
1559581895.7,286046997.4,N
1559581915.6,286046997.5,N
1559581935.4,286046996.8,N
1559581955.2,286046997.4,N
1559581975.1,286046997.1,N
1559581976.0,286046997.1,N
1559581995.8,286046996.6,N
1559582015.7,286046998.8,N
1559582035.5,286047000.7,N
1559582055.3,286047000.8,N
1559582075.2,286046998.5,N
1559582095.9,286047000.2,N
1559582115.7,286047000.3,N
1559582135.6,286046998.7,N
1559582155.4,286046997.0,N
1559582175.3,286046994.9,Y
1559582195.1,286046995.6,P
1559582215.8,286046995.9,N
1559582235.7,286046993.3,P
1559582255.5,286046995.9,N
1559582275.4,286046995.1,N
1559582295.2,286046997.4,N
1559582315.0,286046999.4,N
1559582315.9,286046999.4,N
1559582335.8,286046999.1,N
1559582355.6,286047001.2,N
1559582375.4,286046999.0,N
1559582395.3,286046997.0,N
1559582415.1,286047000.3,N
1559582435.9,286046998.5,N
1559582455.7,286047000.8,N
1559582475.5,286046998.2,N
1559582495.4,286046996.8,N
1559582515.2,286046997.9,N
1559582535.0,286046993.9,Y
1559582535.9,286046993.9,P
1559582555.8,286046996.4,N
1559582575.6,286046994.8,P
1559582595.5,286046992.9,Y
1559582615.3,286046995.6,P
1559582635.1,286046995.7,P
1559582655.9,286046993.7,P
1559582675.7,286046992.2,Y
1559582695.6,286046999.6,P
1559582715.4,286046997.4,N
1559582735.2,286046996.0,N
1559582755.1,286046992.1,Y
1559582756.0,286046992.1,P
1559582775.8,286046996.0,N
1559582795.7,286046993.8,N
1559582815.5,286046992.0,Y
1559582835.3,286046997.7,P
1559582855.2,286046994.9,P
1559582875.0,286046995.3,P
1559582875.9,286046995.3,Y
1559582895.8,286046998.1,P
1559582915.6,286046999.5,N
1559582935.4,286046998.7,N
1559582955.3,286046998.8,N
1559582975.1,286046998.8,N
1559582995.8,286046999.4,N
1559583015.7,286046998.6,N
1559583035.5,286046999.5,N
1559583055.4,286046999.1,N
1559583075.2,286046999.6,N
1559583095.0,286046997.5,N
1559583095.9,286046997.5,N
1559583115.8,286046996.7,Y
1559583135.6,286046998.8,P
1559583155.4,286046999.1,P
1559583175.3,286046997.4,P
1559583195.1,286046994.9,Y
1559583215.9,286046998.4,P
1559583235.7,286046998.8,P
1559583255.5,286046996.8,P
1559583275.4,286046996.7,Y
1559583295.2,286047000.1,P
1559583315.1,286047003.8,P
1559583316.0,286047003.8,N
1559583335.8,286047007.1,N
1559583355.6,286047008.9,N
1559583375.5,286047009.2,N
1559583395.3,286047008.8,N
1559583415.1,286047009.6,N
1559583435.9,286047012.0,N
1559583455.7,286047011.5,N
1559583475.6,286047012.8,N
1559583495.4,286047014.9,Y
1559583515.2,286047006.3,P
1559583535.1,286047006.5,P
1559583536.0,286047006.5,P
1559583555.8,286047008.6,Y
1559583575.6,286047002.5,P
1559583595.5,286047002.3,N
1559583615.3,286047003.1,N
1559583635.2,286047003.2,N
1559583655.9,286047005.9,Y
1559583675.7,286047002.3,P
1559583695.6,286047002.0,P
1559583715.4,286047000.0,N
1559583735.3,286047002.8,N
1559583755.1,286047000.7,N
1559583756.0,286047000.7,N
1559583775.8,286047000.0,N
1559583795.7,286047002.7,N
1559583815.5,286047002.1,N
1559583835.3,286047004.3,Y
1559583855.2,286047001.6,P
1559583875.0,286047002.1,P
1559583875.9,286047002.1,P
1559583895.8,286047000.3,N
1559583915.6,286046998.6,N
1559583935.4,286046998.7,N
1559583955.3,286046998.7,N
1559583975.1,286047000.0,N
1559583995.8,286047000.1,N
1559584015.7,286047000.4,N
1559584035.5,286046999.9,N
1559584055.4,286047002.3,N
1559584075.2,286047000.9,N
1559584095.0,286047000.4,N
1559584095.9,286047000.4,N
1559584115.8,286047002.6,N
1559584135.6,286047000.9,N
1559584155.4,286047001.4,N
1559584175.3,286047002.6,N
1559584195.1,286047001.3,N
1559584215.9,286047004.0,Y
1559584235.7,286047003.6,P
1559584255.5,286047001.7,N
1559584275.4,286047002.1,N
1559584295.2,286047002.6,N
1559584315.0,286047001.3,N
1559584316.0,286047001.3,N
1559584335.8,286047003.2,Y
1559584355.6,286047004.4,P
1559584375.5,286047004.2,P
1559584395.3,286047004.3,P
1559584415.1,286047001.9,N
1559584435.9,286047002.5,N
1559584455.7,286047001.9,N
1559584475.6,286047004.3,Y
1559584495.4,286047001.0,P
1559584515.2,286047000.0,N
1559584535.1,286047002.7,N
1559584536.0,286047002.7,N
1559584555.8,286047002.5,N
1559584575.6,286047002.7,N
1559584595.5,286047001.4,N
1559584615.3,286047004.1,Y
1559584635.2,286046999.7,P
1559584655.9,286047002.5,N
1559584675.7,286047002.7,N
1559584695.6,286047000.9,N
1559584715.4,286047000.3,N
1559584735.2,286047002.7,N
1559584755.1,286047000.3,N
1559584756.0,286047000.3,N
1559584775.8,286047000.4,N
1559584795.7,286046999.8,N
